Weather History for Danbury, CT

Change the Weather History Date:

Saturday, December 16, 2000

  Actual Average Record
Temperature  
Mean Temperature 36 °F -  
Max Temperature 44 °F 39 °F 58 °F (1971)
Min Temperature 28 °F 24 °F 7 °F (1961)
Degree Days  
Heating Degree Days 29    
Moisture  
Dew Point 35 °F    
Average Humidity 91    
Maximum Humidity 100    
Minimum Humidity 78    
Precipitation  
Precipitation 0.42 in - - ()
Sea Level Pressure  
Sea Level Pressure 30.29 in    
Wind  
Wind Speed 5 mph (ENE)    
Max Wind Speed 13 mph    
Max Gust Speed -    
Visibility 5 miles    
Events Rain    
Averages and records for this station are not official NWS values.
T = Trace of Precipitation, MM = Missing Value Source: NWS Daily Summary

Daily Weather History Graph

Daily Weather History Graph

Search for Another Location

Airport:

Trip Planner

Search our weather history database for the weather conditions in past years. The results will help you decide how hot, cold, wet, or windy it might be!

Date:

Astronomy

Dec. 16, 2000 Rise Set
Actual Time 7:13 AM EST 4:25 PM EST
Civil Twilight 6:42 AM EST 4:57 PM EST
Nautical Twilight 6:07 AM EST 5:31 PM EST
Astronomical Twilight 5:34 AM EST 6:05 PM EST
Moon 10:41 PM EST (12/16) 11:39 AM EST (12/16)
Length of Visible Light 10h 14m
Length of Day
9h 11m
Waning Gibbous, 65% of the Moon is Illuminated
Dec 16
Waning Gibbous
Dec 17
Last Quarter
Dec 25
New
Jan 2
First Quarter
Jan 9
Full

Hourly Weather History & Observations

Time (EST) Temp. Windchill Dew Point Humidity Pressure Visibility Wind Dir Wind Speed Gust Speed Precip Events Conditions
12:53 AM 28.9 °F - 23.0 °F 78% 30.57 in 10.0 mi Calm Calm - N/A   Overcast
1:53 AM 30.0 °F - 24.1 °F 79% 30.58 in 10.0 mi Calm Calm - N/A   Overcast
2:53 AM 30.0 °F 26.5 °F 25.0 °F 82% 30.55 in 10.0 mi ENE 3.5 mph - N/A   Overcast
3:53 AM 30.0 °F - 25.0 °F 82% 30.56 in 10.0 mi Calm Calm - N/A   Overcast
4:53 AM 30.9 °F - 25.0 °F 79% 30.54 in 10.0 mi Calm Calm - N/A   Overcast
5:53 AM 30.0 °F 26.5 °F 26.1 °F 85% 30.51 in 10.0 mi NNE 3.5 mph - N/A   Overcast
6:53 AM 30.0 °F 26.5 °F 26.1 °F 85% 30.50 in 10.0 mi ESE 3.5 mph - N/A   Overcast
7:53 AM 30.9 °F - 27.0 °F 85% 30.51 in 10.0 mi Calm Calm - N/A   Overcast
8:53 AM 32.0 °F 26.4 °F 28.0 °F 85% 30.53 in 10.0 mi East 5.8 mph - N/A   Overcast
9:53 AM 34.0 °F 27.2 °F 30.0 °F 85% 30.48 in 10.0 mi ENE 8.1 mph - N/A   Mostly Cloudy
10:25 AM 35.6 °F 29.2 °F 30.2 °F 81% 30.46 in 10.0 mi ENE 8.1 mph - N/A   Overcast
10:37 AM 35.6 °F 29.2 °F 30.2 °F 81% 30.45 in 10.0 mi ENE 8.1 mph - N/A   Overcast
10:53 AM 36.0 °F 29.0 °F 30.9 °F 82% 30.45 in 10.0 mi ENE 9.2 mph - N/A   Overcast
11:00 AM 35.6 °F 29.2 °F 30.2 °F 81% 30.42 in 10.0 mi East 8.1 mph - N/A   Overcast
11:53 AM 37.0 °F 30.4 °F 32.0 °F 82% 30.40 in 10.0 mi ENE 9.2 mph - 0.00 in Rain Light Rain
12:53 PM 36.0 °F 30.3 °F 33.1 °F 89% 30.36 in 6.0 mi ENE 6.9 mph - 0.01 in Rain Light Rain
1:53 PM 36.0 °F 29.6 °F 34.0 °F 93% 30.36 in 3.0 mi ENE 8.1 mph - 0.01 in Rain Light Rain
2:39 PM 35.6 °F 29.2 °F 33.8 °F 93% 30.32 in 2.5 mi ENE 8.1 mph - 0.01 in Rain Light Rain
2:53 PM 36.0 °F 29.6 °F 35.1 °F 97% 30.33 in 2.5 mi NE 8.1 mph - 0.01 in   Overcast
3:02 PM 35.6 °F 30.7 °F 35.6 °F 100% 30.32 in 1.0 mi NE 5.8 mph - 0.00 in Rain Light Rain
3:53 PM 36.0 °F 28.0 °F 35.1 °F 97% 30.29 in 1.0 mi ENE 11.5 mph - 0.01 in Rain Light Rain
4:53 PM 37.9 °F 30.9 °F 37.0 °F 97% 30.26 in 1.0 mi ENE 10.4 mph - 0.03 in Rain Light Rain
5:29 PM 39.2 °F 33.0 °F 37.4 °F 93% 30.23 in 1.0 mi ENE 9.2 mph - 0.01 in Rain Light Rain
5:53 PM 39.9 °F 33.4 °F 39.0 °F 97% 30.22 in 3.0 mi ENE 10.4 mph - 0.01 in   Overcast
6:26 PM 41.0 °F 35.2 °F 39.2 °F 93% 30.19 in 2.0 mi ENE 9.2 mph - 0.01 in Rain Light Rain
6:53 PM 42.1 °F 35.7 °F 41.0 °F 96% 30.18 in 2.5 mi ENE 11.5 mph - 0.02 in Rain Light Rain
7:09 PM 42.8 °F 36.2 °F 41.0 °F 93% 30.15 in 2.0 mi ENE 12.7 mph - 0.01 in Rain Light Rain
7:53 PM 43.0 °F 36.8 °F 42.1 °F 97% 30.13 in 1.8 mi ENE 11.5 mph - 0.04 in Rain Light Rain
8:53 PM 44.1 °F 38.1 °F 43.0 °F 96% 30.10 in 1.8 mi ENE 11.5 mph - 0.07 in Rain Rain
9:06 PM 44.6 °F 39.7 °F 42.8 °F 93% 30.09 in 2.0 mi ENE 9.2 mph - 0.04 in Rain Rain
9:15 PM 44.6 °F 40.2 °F 42.8 °F 93% 30.09 in 1.8 mi ENE 8.1 mph - 0.08 in Rain Rain
9:23 PM 42.8 °F 37.5 °F 42.8 °F 100% 30.08 in 2.5 mi ENE 9.2 mph - 0.11 in Rain Rain
9:32 PM 44.6 °F 40.2 °F 42.8 °F 93% 30.08 in 3.0 mi ENE 8.1 mph - 0.12 in Rain Rain
9:53 PM 43.0 °F 38.8 °F 42.1 °F 97% 30.07 in 4.0 mi NE 6.9 mph - 0.14 in Rain Light Rain
10:22 PM 42.8 °F 38.0 °F 42.8 °F 100% 30.05 in 2.0 mi ENE 8.1 mph - 0.01 in Rain Light Rain
10:27 PM 42.8 °F 38.0 °F 42.8 °F 100% 30.04 in 1.8 mi ENE 8.1 mph - 0.01 in Rain Light Rain
10:53 PM 42.1 °F 37.7 °F 42.1 °F 100% 30.02 in 2.0 mi NE 6.9 mph - 0.02 in   Overcast
11:02 PM 42.8 °F 39.3 °F 42.8 °F 100% 30.01 in 1.8 mi NE 5.8 mph - 0.00 in Rain Light Rain
11:46 PM 42.8 °F 41.1 °F 42.8 °F 100% 29.97 in 2.5 mi East 3.5 mph - 0.04 in Rain Light Rain
11:53 PM 43.0 °F - 42.1 °F 97% 29.98 in 2.5 mi Calm Calm - 0.05 in Rain Light Rain